Cloud_Cover
88 92 92 92 92 88 80 80 80 80 76 76 76 76 76 76 76 76 76 76 76 76 76 76 68 64 64 64 64 56 56 56 56 56 56 56 68 76 76 68 68 68 68 68 76 76 64 48 44 44 44 48 48 44 36 36 36 36 32 32 32 24 24 24 24 20 20 20 12
48 56 56 48 56 56 64 64 68 68 68 68 68 68 68 68 68 68 68 68 68 68 68 64 56 64 64 64 56 56 56 64 64 56 56 64 68 76 76 76 68 68 68 76 80 76 64 56 48 48 44 44 48 48 44 36 36 36 36 32 32 24 24 24 24 20 20 12 12
24 24 24 24 24 24 24 24 36 44 48 48 44 44 44 36 56 64 64 56 48 48 56 68 76 68 68 68 64 64 64 56 56 56 56 56 68 68 68 76 68 68 68 76 76 80 76 64 48 44 44 44 44 44 36 32 36 36 32 32 24 20 20 20 20 12 12 12 12
24 24 24 32 32 32 32 32 32 32 36 44 44 44 44 56 48 44 36 36 32 32 44 76 80 80 68 64 64 64 56 48 48 48 48 56 56 64 76 76 76 68 68 76 76 76 68 48 44 44 36 36 36 36 32 32 32 32 24 20 20 20 20 12 12 12 12 12 8
32 32 32 32 32 32 32 32 32 36 44 44 64 68 64 56 44 32 32 48 32 32 48 76 68 68 68 64 64 48 48 48 48 48 56 56 56 64 68 68 68 68 64 68 68 56 48 44 44 36 36 36 36 32 24 20 20 20 20 12 20 20 20 20 12 12 8 8 0
36 36 32 32 32 32 32 32 36 56 76 80 76 68 56 48 36 36 36 32 36 48 56 68 68 76 76 56 56 48 48 48 56 56 56 56 76 76 76 68 68 64 64 64 56 48 48 44 44 44 36 36 32 24 24 20 20 12 20 32 24 20 20 20 12 8 8 8 0
44 44 44 64 64 56 56 56 68 76 80 80 76 68 56 48 48 56 64 64 64 68 68 68 80 76 68 76 76 76 68 56 56 56 64 76 76 76 76 68 64 64 64 64 64 56 48 44 44 36 36 36 32 24 24 24 20 24 24 12 12 12 12 12 12 8 0 0 0
64 64 68 76 76 76 76 76 76 80 76 76 68 64 64 68 68 76 68 68 68 76 76 76 76 76 76 80 80 76 76 64 64 68 80 80 76 76 68 64 64 68 68 68 64 56 48 48 36 36 36 36 36 36 36 36 32 24 12 8 8 8 8 8 0 0 0 0 0
64 68 76 80 80 80 76 76 76 76 68 68 64 64 64 68 68 76 68 68 76 76 80 76 80 80 80 80 76 76 76 76 76 76 76 76 68 64 64 64 68 68 68 68 64 48 44 36 36 36 44 44 44 36 36 32 24 20 12 8 0 0 0 0 0 0 0 0 0
64 68 68 76 76 76 76 76 68 68 68 68 64 64 64 68 76 76 76 68 80 80 80 88 88 88 80 76 76 76 76 68 68 64 64 56 48 48 56 64 64 68 68 64 48 44 36 36 44 48 44 44 44 36 32 24 20 20 20 12 8 8 0 0 0 0 0 0 0
80 76 80 80 80 76 76 76 64 64 76 80 80 76 68 76 76 76 68 68 88 92 92 92 88 88 80 80 80 76 76 76 64 56 56 56 56 64 64 76 68 64 56 48 44 44 44 48 48 48 48 44 44 44 36 24 24 24 20 20 12 8 0 0 0 0 0 0 0
76 76 76 80 80 80 76 76 68 76 80 80 80 76 76 80 76 76 80 92 92 92 92 88 88 88 88 88 80 76 68 68 64 64 64 56 56 64 68 76 64 64 56 48 44 44 48 56 56 48 48 48 44 44 36 32 32 32 24 20 20 12 8 0 0 0 0 0 0
64 68 76 80 80 80 80 88 88 88 80 80 80 80 76 76 68 80 92 92 92 88 88 88 88 80 80 80 80 68 64 64 64 56 56 64 64 68 68 68 64 56 48 48 48 56 64 64 56 56 48 48 44 44 36 36 32 32 24 20 20 12 12 8 0 0 0 0 0
64 68 80 88 88 88 92 92 88 88 80 80 80 76 76 80 88 92 92 92 88 88 80 80 80 76 68 76 68 68 68 68 68 68 64 76 68 68 68 64 56 56 56 56 64 64 68 64 64 56 56 48 44 44 36 36 32 32 24 20 20 12 12 8 8 0 0 0 0
80 88 88 88 88 88 88 88 88 80 80 80 80 88 88 88 92 92 88 88 80 80 76 76 76 68 68 68 64 64 68 76 76 76 76 68 68 68 64 64 64 64 64 68 68 68 68 68 64 64 56 44 36 36 36 36 32 24 20 20 20 12 12 8 8 0 0 0 0
80 80 80 88 88 88 88 88 80 80 80 88 88 88 92 92 92 88 80 76 76 68 68 68 64 64 56 56 56 56 56 68 76 76 76 68 68 68 68 68 68 68 68 76 76 68 68 64 56 64 64 44 44 44 44 36 32 24 24 20 20 20 12 12 8 8 8 8 8
80 80 80 88 88 88 88 88 88 88 88 88 92 92 92 88 88 76 68 64 68 68 64 64 56 56 56 56 56 56 56 76 76 76 76 76 68 68 68 68 68 76 76 76 68 68 64 64 64 56 56 48 48 44 44 36 32 24 24 24 20 20 12 12 12 12 12 8 8
88 88 88 88 92 92 92 92 88 88 88 88 88 88 88 88 80 68 64 68 68 68 68 64 64 64 64 56 48 56 64 76 80 80 76 76 76 76 76 76 80 80 80 76 68 68 64 68 68 56 48 48 48 48 44 36 32 24 24 24 20 20 20 12 20 20 20 12 12
88 88 88 92 92 92 92 92 88 88 80 80 80 80 80 76 76 76 76 76 76 76 76 76 76 68 56 48 48 64 76 80 80 80 80 76 76 76 76 80 80 80 80 76 76 68 64 68 64 48 48 56 56 48 44 36 32 32 32 24 24 20 20 20 24 24 20 20 12
88 88 88 88 88 88 88 80 80 80 76 80 80 80 76 76 76 76 76 76 80 80 80 80 68 64 56 48 64 76 80 80 88 88 80 76 68 76 80 88 88 80 80 76 76 68 64 56 56 48 56 56 56 48 44 36 36 32 32 24 24 24 24 24 32 24 20 20 20
88 88 88 88 88 80 80 76 76 80 80 80 80 80 76 68 68 68 76 80 80 80 80 68 64 56 56 48 76 80 88 88 88 88 80 68 68 76 80 92 88 80 80 76 76 68 68 56 56 56 56 56 48 48 44 36 36 32 32 24 24 24 24 32 32 24 24 20 20
80 80 80 80 80 80 76 80 80 80 88 80 80 76 76 68 68 68 76 88 80 76 68 64 56 56 56 56 80 88 88 80 80 80 76 68 68 76 88 92 92 88 80 76 68 68 64 56 64 64 56 56 48 44 36 36 36 32 24 24 24 24 24 24 24 24 24 20 20
88 88 88 92 92 88 88 88 88 88 88 88 88 80 76 80 80 76 76 80 76 68 64 56 48 48 48 48 76 88 88 80 80 76 76 68 68 68 80 92 92 88 80 76 68 64 64 64 64 64 56 48 48 44 36 32 32 32 24 24 24 24 24 24 24 24 20 20 20
92 92 92 92 92 92 88 88 88 88 88 88 88 80 80 80 76 76 68 68 68 64 64 56 56 48 48 44 68 80 88 88 88 80 76 76 68 68 76 92 92 92 80 76 68 68 68 68 68 64 56 48 44 36 36 32 32 32 24 24 24 24 20 20 24 20 20 20 12
92 92 92 88 88 80 80 80 88 88 88 80 80 76 76 68 68 68 68 68 64 56 56 48 44 44 36 36 36 36 48 80 80 88 80 76 76 68 68 80 88 88 80 76 68 68 68 68 68 68 64 48 44 36 32 32 32 24 24 24 24 24 24 20 20 20 20 20 12
80 80 80 76 76 76 80 80 80 80 80 80 76 68 68 64 64 64 64 56 48 44 44 36 36 32 32 24 24 36 44 64 76 80 88 80 80 80 80 80 88 88 76 76 76 76 76 68 68 68 64 44 36 32 32 24 24 24 24 24 20 20 20 20 12 12 12 12 8
48 48 56 64 68 76 76 76 76 76 76 68 68 64 64 56 48 48 44 36 36 36 32 32 32 32 24 20 12 12 20 48 48 56 68 88 92 92 92 92 92 88 80 80 80 80 76 68 68 64 56 44 32 24 24 24 24 20 20 20 12 8 8 8 8 8 8 8 0
32 44 56 64 68 68 68 68 80 80 76 68 56 48 48 44 36 36 36 36 32 32 32 32 32 20 8 8 8 0 12 48 44 44 44 56 80 92 92 92 92 88 88 92 92 88 80 76 68 64 48 44 36 32 24 20 20 12 8 8 0 0 0 0 0 0 8 8 0
48 64 64 68 68 68 68 68 64 64 56 56 48 36 36 32 32 32 24 24 32 32 24 20 8 8 0 0 0 0 0 20 32 44 44 48 68 80 88 80 80 88 92 92 92 88 80 76 68 56 48 44 36 32 24 12 8 8 0 0 0 0 0 0 0 0 0 0 0
48 56 68 64 56 44 44 48 48 44 32 32 24 24 24 20 32 32 24 24 20 12 0 0 0 0 0 0 0 0 0 0 0 8 20 32 44 56 68 80 92 92 92 92 92 88 80 76 68 68 64 48 44 32 24 20 8 0 0 0 0 0 0 0 0 0 0 0 0
32 24 24 24 32 36 36 44 32 24 24 24 20 20 20 20 20 12 12 0 0 0 0 0 0 0 0 0 0 0 0 0 0 0 0 0 48 76 88 80 92 92 92 92 92 92 88 80 76 76 68 56 44 32 20 12 8 0 0 0 0 0 0 0 0 0 0 0 0
8 8 8 8 8 8 0 0 8 8 8 8 12 12 8 0 0 0 0 0 0 0 0 0 0 0 0 0 0 0 0 0 0 0 24 80 88 80 80 92 92 92 92 92 92 92 92 88 80 76 64 48 36 24 20 12 8 0 0 0 0 0 0 0 0 0 0 0 0
0 0 0 0 0 0 0 0 0 0 0 0 0 0 0 0 0 0 0 0 0 0 0 0 0 0 0 0 0 0 0 0 0 44 88 92 80 80 88 92 92 92 92 92 92 92 92 92 80 68 56 44 32 20 12 8 8 0 0 0 0 0 0 0 0 0 0 0 0
0 0 0 0 0 0 0 0 0 0 0 0 0 0 0 0 0 0 0 0 0 0 0 0 0 0 0 0 0 0 0 0 24 64 92 92 92 88 88 88 92 92 92 92 92 92 92 92 80 64 48 36 24 12 8 0 8 0 0 0 0 0 0 0 0 0 0 0 0
0 0 0 0 0 0 0 0 0 0 0 0 0 0 0 0 0 0 0 0 0 0 0 0 0 0 0 0 0 0 0 12 64 88 92 92 92 88 80 76 76 88 92 92 92 92 92 92 80 64 44 24 12 8 0 0 0 0 0 0 0 0 0 0 0 0 0 0 0
0 0 0 0 0 0 0 0 0 0 0 0 0 0 0 0 0 0 0 0 0 0 0 0 0 0 0 0 0 8 32 64 80 92 92 92 80 76 68 68 76 76 80 92 92 88 88 92 76 64 48 24 8 0 0 0 0 0 0 0 0 0 0 0 0 0 0 0 0
0 0 0 0 0 0 0 0 0 0 0 0 0 0 0 0 0 0 0 0 0 0 0 0 0 0 0 0 20 44 76 88 92 92 92 88 80 76 68 68 68 64 64 76 80 80 76 76 64 48 36 24 8 0 0 0 0 8 8 0 0 0 0 0 0 0 0 0 0
0 0 0 0 0 0 0 0 0 0 0 0 0 0 0 0 0 0 0 0 0 0 0 0 0 0 0 0 56 76 76 88 92 92 88 88 80 76 68 56 56 48 48 48 48 48 48 44 32 24 12 0 0 0 0 20 12 8 8 0 0 0 0 0 0 0 0 0 0
0 0 0 0 0 0 0 0 0 0 0 0 0 0 0 0 0 0 0 0 0 0 0 0 0 0 0 0 48 76 80 92 88 88 88 88 80 76 68 68 48 44 44 44 44 36 32 32 20 8 0 0 0 0 8 32 20 12 8 0 0 0 0 0 0 0 0 0 0
0 0 0 0 0 0 0 0 0 0 0 0 0 0 0 0 0 0 0 0 0 0 0 0 0 0 12 20 48 76 88 88 88 80 80 80 76 68 64 56 44 32 32 32 32 24 20 12 8 0 0 0 0 12 24 36 20 12 0 0 0 0 0 0 0 0 0 0 0
0 0 0 0 0 0 0 0 0 0 0 0 0 0 0 0 0 0 0 0 0 0 0 0 0 24 44 56 64 76 80 88 80 76 76 68 64 56 48 36 32 20 20 20 12 12 12 8 0 0 0 0 12 36 44 32 12 0 0 0 0 0 0 0 0 0 0 0 0